TimeCDT,TemperatureF,Dew PointF,Humidity,Sea Level PressureIn,VisibilityMPH,Wind Direction,Wind SpeedMPH,Gust SpeedMPH,PrecipitationIn,Events,Conditions,WindDirDegrees,DateUTC
12:52 AM,63.0,57.0,81,30.12,10.0,NW,4.6,-,N/A,,Clear,320,2013-07-02 05:52:00
1:52 AM,64.0,57.0,78,30.13,10.0,Calm,Calm,-,N/A,,Clear,0,2013-07-02 06:52:00
2:52 AM,60.1,55.9,86,30.13,10.0,NNW,3.5,-,N/A,,Partly Cloudy,330,2013-07-02 07:52:00
3:52 AM,59.0,55.9,90,30.13,9.0,NNW,4.6,-,N/A,,Mostly Cloudy,340,2013-07-02 08:52:00
4:52 AM,59.0,55.9,90,30.14,10.0,Calm,Calm,-,N/A,,Partly Cloudy,0,2013-07-02 09:52:00
5:52 AM,60.1,55.9,86,30.14,9.0,NW,3.5,-,N/A,,Mostly Cloudy,320,2013-07-02 10:52:00
6:52 AM,61.0,57.0,87,30.15,9.0,NNW,4.6,-,N/A,,Mostly Cloudy,330,2013-07-02 11:52:00
7:52 AM,64.9,59.0,81,30.15,9.0,Calm,Calm,-,N/A,,Mostly Cloudy,0,2013-07-02 12:52:00
9:52 AM,66.0,59.0,78,30.17,10.0,NNW,5.8,-,N/A,,Mostly Cloudy,340,2013-07-02 14:52:00
10:52 AM,72.0,57.0,59,30.14,10.0,Calm,Calm,-,0.00,,Mostly Cloudy,0,2013-07-02 15:52:00
11:52 AM,75.9,55.0,48,30.14,10.0,SW,4.6,-,N/A,,Scattered Clouds,230,2013-07-02 16:52:00
12:52 PM,80.1,55.0,42,30.13,10.0,NW,3.5,-,N/A,,Scattered Clouds,310,2013-07-02 17:52:00
1:52 PM,82.0,54.0,38,30.11,10.0,Variable,3.5,-,N/A,,Partly Cloudy,0,2013-07-02 18:52:00
2:52 PM,82.0,52.0,35,30.09,10.0,WNW,5.8,-,N/A,,Scattered Clouds,300,2013-07-02 19:52:00
3:52 PM,80.1,55.9,43,30.08,10.0,NW,4.6,-,N/A,,Mostly Cloudy,310,2013-07-02 20:52:00
4:52 PM,82.0,54.0,38,30.06,10.0,WNW,3.5,-,N/A,,Mostly Cloudy,300,2013-07-02 21:52:00
5:52 PM,82.0,55.0,39,30.06,10.0,West,6.9,-,N/A,,Mostly Cloudy,260,2013-07-02 22:52:00
6:52 PM,78.1,54.0,43,30.06,10.0,West,11.5,-,N/A,,Mostly Cloudy,260,2013-07-02 23:52:00
7:27 PM,75.2,53.6,47,30.06,10.0,West,9.2,-,N/A,Thunderstorm,Thunderstorm,270,2013-07-03 00:27:00
7:52 PM,72.0,57.0,59,30.06,10.0,NNW,6.9,-,0.00,Rain-Thunderstorm,Light Thunderstorms and Rain,330,2013-07-03 00:52:00
8:21 PM,71.6,59.0,64,30.08,10.0,NNW,3.5,-,0.00,,Mostly Cloudy,330,2013-07-03 01:21:00
8:52 PM,71.1,57.9,63,30.05,10.0,Calm,Calm,-,0.00,,Mostly Cloudy,0,2013-07-03 01:52:00
9:52 PM,69.1,59.0,70,30.06,10.0,Variable,3.5,-,N/A,,Mostly Cloudy,0,2013-07-03 02:52:00
10:52 PM,64.0,57.9,80,30.06,10.0,NNW,4.6,-,N/A,,Scattered Clouds,330,2013-07-03 03:52:00
11:00 PM,-9999,-9999,N/A,-9999,-9999.0,North,-9999.0,-,N/A,,Unknown,0,2013-07-03 04:00:00
11:52 PM,64.0,60.1,87,30.06,10.0,WNW,3.5,-,N/A,,Partly Cloudy,300,2013-07-03 04:52:00